Location: D�rnast
(49.6426°N, 11.9755°E)
Time: 20:58:34
(UTC+00:00)

USA 234 - Pass Details

Date: 24 January 2021
Orbit: 1100 x 1107 km, 123.0° (Epoch: 27 February)

Event Time Altitude Azimuth Distance (km) Brightness Sun altitude
Exits shadow 17:29:27 21° 68° (ENE) 2,274 4.3 -15.2°
Maximum altitude 17:33:40 48° 4° (N) 1,420 3.7 -15.9°
Drops below altitude 10° 17:39:53 10° 294° (WNW) 2,968 6.4 -16.9°
Sets 17:42:27 0° 288° (WNW) 3,927 7.3 -17.3°
